Flag for Norway Weather past 2 weeks in Haugesund, Norway

Now
36 °F

Passing clouds.


Feels Like: 29 °F
Forecast: 38 / 44 °F
Wind: 9 mph from South

Location: Haugesund / Karmoy

Current Time: Mar 28, 2015 at 5:41:11 AM

Latest Report: Mar 28, 2015 at 4:20 AM


Visibility: N/A

Pressure: 29.92 "Hg

Humidity: 100%

Dew point: 36 °F

Location of HaugesundLocation

Historic Weather in Haugesund — Graph

°F

Haugesund temperature yesterday

Maximum temperature yesterday: 45 °F (at 1:20 PM)
Minimum temperature yesterday: 34 °F (at 6:50 AM)
Average temperature yesterday: 40 °F

Past Weeks' High & Low Weather Summary

 TemperatureHumidityPressure
High54 °F (Mar 17, 12:50 PM)100% (Mar 14, 2:50 AM)30.74 "Hg (Mar 14, 2:50 AM)
Low25 °F (Mar 15, 7:20 AM)26% (Mar 21, 2:50 PM)29.59 "Hg (Mar 23, 9:20 AM)
Average41 °F77%30.22 "Hg
* Reported Mar 13 3:20 AM — Mar 28 3:50 AM, Haugesund, Weather by CustomWeather, © 2015

Note: Actual official high and low records may vary slightly from our data, if they occured in-between our weather recording intervals... More about our weather records

Advertising

Haugesund weather history for previous 24 hours

 ConditionsComfort  
Time TempWeatherWind HumidityBarometerVisibility
3:50 AM
Sat, Mar 28
36 °FChilly.9 mph100%29.92 "HgN/A
3:20 AM37 °FChilly.9 mph93%29.92 "HgN/A
2:50 AM39 °FChilly.9 mph93%29.92 "HgN/A
2:20 AM37 °FChilly.8 mph100%29.95 "HgN/A
1:50 AM37 °FChilly.8 mph100%29.95 "HgN/A
1:20 AM39 °FPassing clouds.7 mph93%29.95 "HgN/A
12:50 AM39 °FPassing clouds.6 mph100%29.95 "HgN/A
12:20 AM39 °FChilly.5 mph93%29.95 "HgN/A
11:50 PM
Fri, Mar 27
39 °FPassing clouds.7 mph93%29.95 "HgN/A
11:20 PM39 °FPassing clouds.7 mph93%29.95 "HgN/A
10:50 PM41 °FPassing clouds.8 mph87%29.95 "HgN/A
10:20 PM41 °FPassing clouds.8 mph93%29.92 "HgN/A
9:50 PM41 °FPassing clouds.8 mph87%29.92 "HgN/A
9:20 PM41 °FPassing clouds.10 mph87%29.92 "HgN/A
8:50 PM41 °FPartly cloudy.10 mph93%29.92 "HgN/A
8:20 PM41 °FPassing clouds.8 mph93%29.92 "HgN/A
7:50 PM41 °FPassing clouds.9 mph93%29.92 "HgN/A
7:20 PM41 °FPassing clouds.9 mph93%29.92 "HgN/A
6:50 PM41 °FScattered showers. Partly sunny.6 mph93%29.92 "HgN/A
6:20 PM41 °FScattered showers. Partly sunny.5 mph87%29.89 "HgN/A
5:50 PM41 °FSprinkles. Partly sunny.5 mph81%29.89 "HgN/A
5:20 PM41 °FDrizzle. Mostly cloudy.12 mph81%29.89 "HgN/A
4:50 PM43 °FScattered clouds.10 mph81%29.89 "HgN/A
4:20 PM43 °FPartly sunny.9 mph81%29.89 "HgN/A
3:50 PM43 °FScattered clouds.9 mph76%29.89 "HgN/A
3:20 PM43 °FScattered clouds.10 mph76%29.86 "HgN/A
2:50 PM43 °FScattered clouds.10 mph71%29.86 "HgN/A
2:20 PM43 °FPartly sunny.8 mph76%29.86 "HgN/A
1:50 PM43 °FPassing clouds.7 mph66%29.86 "HgN/A
1:20 PM45 °FPassing clouds.5 mph66%29.86 "HgN/A
12:50 PM43 °FPassing clouds.7 mph66%29.86 "HgN/A
12:20 PM43 °FPassing clouds.9 mph66%29.86 "HgN/A
11:50 AM43 °FPassing clouds.7 mph66%29.86 "HgN/A
11:20 AM41 °FPassing clouds.6 mph70%29.86 "HgN/A
10:50 AM41 °FPassing clouds.6 mph70%29.86 "HgN/A
10:20 AM41 °FPassing clouds.6 mph70%29.83 "HgN/A
9:50 AM41 °FPassing clouds.3 mph76%29.83 "HgN/A
9:20 AM39 °FPassing clouds.3 mph75%29.83 "HgN/A
8:50 AM39 °FPassing clouds.3 mph75%29.83 "HgN/A
8:20 AM37 °FPassing clouds.3 mph93%29.83 "HgN/A
7:50 AM34 °FPassing clouds.5 mph93%29.83 "HgN/A
7:20 AM34 °FPassing clouds.5 mph93%29.80 "HgN/A
6:50 AM34 °FScattered clouds.No wind87%29.80 "HgN/A
6:20 AM36 °FPassing clouds.2 mph87%29.80 "HgN/A
5:50 AM36 °FPassing clouds.No wind87%29.77 "HgN/A
5:20 AM36 °FMostly cloudy.No wind87%29.77 "HgN/A
Weather by CustomWeather, © 2015

See weather overviewHow to use our weather pages